Overview Statistics Trail Chart Weather Telemetry Raw packets
 

This is the latest recevied weather packets stored in our database for station/object XE3JAC-13. If no packets are shown the sender has not sent any weather packets the latest 10 day(s).

<< 8 9 10 11 12 13 14 >>
Time Temp. Humidity Pressure Rain* Wind** Luminosity Snow
1777247917 20.56° C 45% 1011 hPa 0 mm - - -
1777247017 20.56° C 45% 1011 hPa 0 mm - - -
1777246117 20.56° C 45% 1011 hPa 0 mm - - -
1777245216 21.11° C 39% 1011 hPa 0 mm - - -
1777244316 21.11° C 39% 1011 hPa 0 mm - - -
1777243415 23.33° C 39% 1011 hPa 0 mm - - -
1777242515 23.33° C 39% 1010 hPa 0 mm - - -
1777241615 23.33° C 39% 1010 hPa 0 mm - - -
1777240714 23.33° C 39% 1010 hPa 0 mm - - -
1777239814 27.78° C 34% 1009 hPa 0 mm - - -
1777238914 27.78° C 34% 1008 hPa 0 mm - - -
1777238013 27.78° C 35% 1008 hPa 0 mm - - -
1777237113 27.78° C 34% 1008 hPa 0 mm - - -
1777236212 27.22° C 36% 1008 hPa 0 mm - - -
1777235312 27.22° C 36% 1009 hPa 0 mm - - -
1777234411 27.22° C 36% 1009 hPa 0 mm - - -
1777233511 27.78° C 35% 1009 hPa 0 mm - - -
1777232611 27.78° C 36% 1009 hPa 0 mm - - -
1777231710 27.22° C 36% 1010 hPa 0 mm - - -
1777230810 27.22° C 36% 1010 hPa 0 mm - - -
1777229910 27.22° C 35% 1010 hPa 0 mm - - -
1777229009 27.22° C 36% 1010 hPa 0 mm - - -
1777228109 27.22° C 36% 1011 hPa 0 mm - - -
1777227208 27.22° C 35% 1011 hPa 0 mm - - -
1777226308 27.78° C 33% 1011 hPa 0 mm - - -

* Rain latest hour (hover to see other rain measurements)
** Current wind speed in m/s (hover to see current wind gust speed)